TimeCET,TemperatureF,Dew PointF,Humidity,Sea Level PressureIn,VisibilityMPH,Wind Direction,Wind SpeedMPH,Gust SpeedMPH,PrecipitationIn,Events,Conditions,WindDirDegrees,DateUTC
12:00 AM,41.0,32.0,70,29.71,-9999.0,SSE,3.5,-,N/A,,Clear,160,2012-10-31 23:00:00
1:00 AM,35.6,30.2,81,29.71,-9999.0,ENE,3.5,-,N/A,,Clear,70,2012-11-01 00:00:00
2:00 AM,33.8,30.2,87,29.68,-9999.0,ESE,3.5,-,N/A,,Clear,120,2012-11-01 01:00:00
3:00 AM,39.2,30.2,70,29.65,-9999.0,SE,3.5,-,N/A,,Clear,130,2012-11-01 02:00:00
4:00 AM,39.2,28.4,65,29.62,-9999.0,SSE,5.8,-,N/A,,Clear,150,2012-11-01 03:00:00
5:00 AM,39.2,26.6,61,29.59,-9999.0,SE,5.8,-,N/A,,Clear,130,2012-11-01 04:00:00
6:00 AM,41.0,26.6,57,29.53,-9999.0,Variable,2.3,-,N/A,,Clear,0,2012-11-01 05:00:00
7:00 AM,42.8,30.2,61,29.53,-9999.0,SE,5.8,-,N/A,,Clear,140,2012-11-01 06:00:00
8:00 AM,44.6,33.8,66,29.50,-9999.0,ESE,5.8,-,N/A,,Clear,120,2012-11-01 07:00:00
9:00 AM,44.6,37.4,76,29.47,6.2,SE,4.6,-,N/A,Rain,Light Rain,130,2012-11-01 08:00:00
10:00 AM,48.2,39.2,71,29.44,6.2,SSE,13.8,-,N/A,Rain,Light Rain,160,2012-11-01 09:00:00
11:00 AM,48.2,41.0,76,29.44,6.2,South,10.4,-,N/A,,Mostly Cloudy,170,2012-11-01 10:00:00
12:00 PM,48.2,42.8,82,29.39,6.2,South,15.0,-,N/A,Rain,Light Rain,170,2012-11-01 11:00:00
1:00 PM,48.2,42.8,82,29.39,6.2,South,10.4,-,N/A,,Overcast,190,2012-11-01 12:00:00
1:33 PM,48.2,44.6,87,29.39,6.2,South,18.4,28.8,N/A,,Overcast,170,2012-11-01 12:33:00
2:00 PM,48.2,44.6,87,29.36,6.2,South,16.1,26.5,N/A,,Overcast,180,2012-11-01 13:00:00
2:20 PM,48.2,44.6,87,29.39,6.2,South,16.1,-,N/A,,Overcast,190,2012-11-01 13:20:00
3:00 PM,48.2,44.6,87,29.39,6.2,SSW,10.4,21.9,N/A,,Overcast,210,2012-11-01 14:00:00
3:29 PM,48.2,44.6,87,29.39,2.5,South,15.0,-,N/A,Rain,Light Rain,190,2012-11-01 14:29:00
4:00 PM,46.4,44.6,93,29.39,1.9,SW,5.8,-,N/A,Rain,Light Rain,220,2012-11-01 15:00:00
4:25 PM,46.4,44.6,93,29.39,2.5,West,3.5,-,N/A,Rain,Light Rain,260,2012-11-01 15:25:00
4:35 PM,46.4,46.4,100,29.39,3.1,WSW,3.5,-,N/A,Rain,Light Rain,240,2012-11-01 15:35:00
5:00 PM,48.2,46.4,93,29.39,3.1,SSW,4.6,-,N/A,,Overcast,210,2012-11-01 16:00:00
5:05 PM,48.2,46.4,93,29.39,3.7,SW,3.5,-,N/A,Rain,Light Rain,220,2012-11-01 16:05:00
6:00 PM,48.2,46.4,93,29.42,5.0,South,9.2,-,N/A,Rain,Light Rain,190,2012-11-01 17:00:00
7:00 PM,48.2,46.4,93,29.39,6.2,South,12.7,-,N/A,,Overcast,190,2012-11-01 18:00:00
8:00 PM,48.2,46.4,93,29.42,6.2,SSW,9.2,-,N/A,,Overcast,210,2012-11-01 19:00:00
8:20 PM,48.2,46.4,93,29.42,6.2,SSW,10.4,-,N/A,,Overcast,210,2012-11-01 19:20:00
9:00 PM,48.2,46.4,93,29.44,6.2,SW,4.6,-,N/A,,Overcast,230,2012-11-01 20:00:00
10:00 PM,48.2,46.4,93,29.44,6.2,SSW,2.3,-,N/A,,Overcast,210,2012-11-01 21:00:00
11:00 PM,48.2,44.6,87,29.44,6.2,Variable,2.3,-,N/A,,Overcast,0,2012-11-01 22:00:00